This is the latest recevied weather packets stored in our database for station/object ED4YAZ-13. If no packets are shown the sender has not sent any weather packets the latest 10 day(s).
| Time | Temp. | Humidity | Pressure | Rain* | Wind** | Luminosity | Snow |
|---|---|---|---|---|---|---|---|
| 1778007787 | 14.44° C | 40% | 1012.3 hPa | - | - | - | - |
| 1778007783 | 14.44° C | 40% | 1012.3 hPa | - | - | - | - |
| 1778007175 | 16.11° C | 36% | 1011.3 hPa | - | - | - | - |
| 1778006564 | 17.22° C | 34% | 1010.8 hPa | - | - | - | - |
| 1778005961 | 18.89° C | 31% | 1010.2 hPa | - | - | - | - |
| 1778005357 | 20° C | 30% | 1009.5 hPa | - | - | - | - |
| 1778004757 | 20.56° C | 28% | 1009.2 hPa | - | - | - | - |
| 1778004157 | 21.67° C | 26% | 1008.9 hPa | - | - | - | - |
| 1778003547 | 22.22° C | 24% | 1008.7 hPa | - | - | - | - |
| 1778002947 | 20.56° C | 26% | 1009.3 hPa | - | - | - | - |
| 1778002347 | 23.33° C | 23% | 1008.1 hPa | - | - | - | - |
| 1778001747 | 24.44° C | 22% | 1007.5 hPa | - | - | - | - |
| 1778001147 | 25.56° C | 22% | 1007 hPa | - | - | - | - |
| 1778000556 | 21.67° C | 26% | 1008.7 hPa | - | - | - | - |
| 1778000546 | 21.67° C | 26% | 1008.7 hPa | - | - | - | - |
| 1777999947 | 21.67° C | 26% | 1008.7 hPa | - | - | - | - |
| 1777999346 | 24.44° C | 23% | 1007.5 hPa | - | - | - | - |
| 1777998747 | 22.22° C | 26% | 1008.5 hPa | - | - | - | - |
| 1777998747 | 22.22° C | 26% | 1008.5 hPa | - | - | - | - |
| 1777998147 | 26.67° C | 22% | 1006.8 hPa | - | - | - | - |
| 1777997532 | 27.22° C | 22% | 1006.8 hPa | - | - | - | - |
| 1777996923 | 26.11° C | 23% | 1007 hPa | - | - | - | - |
| 1777996923 | 26.11° C | 23% | 1007 hPa | - | - | - | - |
| 1777996318 | 22.22° C | 27% | 1008.7 hPa | - | - | - | - |
| 1777996318 | 22.22° C | 27% | 1008.7 hPa | - | - | - | - |
* Rain since midnight (hover to see other rain measurements)
** Current wind speed in m/s (hover to see current wind gust speed)